Location: Castle
(40.7167°S, 175.9500°E)
Time: 02:42:40
(UTC+00:00)

IRS-P3 - Pass Details

Date: 04 August 2024
Orbit: 811 x 817 km, 99.0° (Epoch: 07 September)

Event Time Altitude Azimuth Distance (km) Brightness Sun altitude
Rises 17:06:24 0° 6° (N) 3,330 7.4 -25.2°
Reaches altitude 10° 17:08:45 10° 3° (N) 2,407 6.6 -24.8°
Maximum altitude 17:14:01 62° 282° (WNW) 924 4.0 -23.8°
Enters shadow 17:14:51 55° 241° (WSW) 988 4.2 -23.6°
